sat.trackr.live / text

‹ back to catalog

STARLINK-35117

NORAD 65632 · 2025-210L

PAYLOAD ACTIVE UNKNOWN

§ Identity

Operator
Country
US
Launch date
2025-09-18
Launch site
AFETR
Launch vehicle
Mass (kg)
RCS (m²)

Purposes: comms

External: N2YO · Heavens-Above · Gunter

§ Orbital elements

Epoch: 2026-09-20T21:24:34.968096Z

Period
93.85 min
Inclination
53.1630°
Eccentricity
0.0001891
Mean motion
15.34405347 rev/d
Perigee alt
461.4 km
Apogee alt
464.0 km
Semi-major
6,840.8 km
B*
4.2841e-4
RAAN
119.9483°
Arg perigee
93.8740°
Mean anomaly
266.2479°
Rev number
5,762

§ Raw data

STARLINK-351171 65632U 25210L   26263.89207139  .00014128  00000+0  42841-3 0  99972 65632  53.1630 119.9483 0001891  93.8740 266.2479 15.34405347 57629

JSON: /api/v1/satellites/65632 · /tle

For live sub-satellite position, see the globe view (requires WebGL).

§ Visibility from observer

Set your observer location to see the next 7 days of passes ≥ 10°. The values pass through the URL so the page stays shareable.

No JS? Fill the form by hand. The geolocation button needs JavaScript.